カタログに戻る

STARLINK-36851

運用中通信VLEO
NORAD 67943·PAYLOAD·🇺🇸 United States

打ち上げ Feb 24, 2026 から Vandenberg Space Force Base

Loading…

次のパス (今後24時間)

TLE

最新Source: CelesTrak SupGP

元期: Sep 14, 2026, 21:11 UTC

1 67943C 26037M   26257.88312500  .00015873  00000+0  57474-3 0  2576
2 67943  42.9998 202.1900 0001319 264.0677 186.2316 15.27580043    15

AllMySatでSTARLINK-36851をリアルタイム追跡

Download on the App Store